Tracking 22455 objects as of 8-Mar-2021
HD Live streaming from Space Station
objects crossing your sky now

OICETS

Track OICETS now!
10-day predictions
OICETS is classified as:


NORAD ID: 28809
Int'l Code: 2005-031A
Perigee: 559.4 km
Apogee: 586.3 km
Inclination: 98.0 °
Period: 96.0 minutes
Semi major axis: 6943 km
RCS: 1.711 m2 (large)
Launch date: August 23, 2005
Source: Japan (JPN)
Launch site: TYURATAM MISSILE AND SPACE COMPLEX (TTMTR)

Study inter-satellite communications.
aabbcc
Your satellite tracking list
Your tracking list is empty




NASA's NSSDC Master Catalog

Two Line Element Set (TLE):
1 28809U 05031A   21067.20185011  .00000339  00000-0  32003-4 0  9997
2 28809  97.9623 189.8644 0019379  97.6553 262.6871 15.00371348848025
Source of the keplerian elements: AFSPC